This demonstration page uses our WeatherBlox Daily Observations layout. Learn more.

Left ArrowRight Arrow

Hourly Observations for September 15, 2018

Temp ( °F °C ) Dew Point ( °F °C ) Humidity (%) Winds ( mph kmh ) Pressure ( in mb ) Visibility ( mi km ) Precip ( " mm )
12:53 am 00:53 Clear 73 22.8 67 19.4 81 81 S 10 17 30.01 1016 10 16 0.00 0.00
1:53 am 01:53 Clear 71 21.7 66 18.9 84 84 S 6 9 30.01 1016 10 16 0.00 0.00
2:53 am 02:53 Clear 70 21.1 66 18.9 87 87 S 7 11 30.02 1017 10 16 0.00 0.00
3:53 am 03:53 Clear 69 20.6 66 18.9 90 90 S 7 11 30.03 1017 10 16 0.00 0.00
4:53 am 04:53 Clear 69 20.6 66 18.9 90 90 S 6 9 30.03 1017 10 16 0.00 0.00
5:53 am 05:53 Clear 68 20 65 18.3 90 90 S 7 11 30.04 1017 10 16 0.00 0.00
6:53 am 06:53 Clear 67 19.4 65 18.3 93 93 SSE 7 11 30.05 1018 10 16 0.00 0.00
7:53 am 07:53 Sunny 68 20 65 18.3 90 90 SSE 8 13 30.07 1018 10 16 0.00 0.00
8:53 am 08:53 Sunny 71 21.7 67 19.4 87 87 S 8 13 30.08 1019 10 16 0.00 0.00
9:53 am 09:53 Sunny 76 24.4 67 19.4 74 74 SSW 10 17 30.08 1019 10 16 0.00 0.00
10:53 am 10:53 Sunny 80 26.7 67 19.4 64 64 S 8 13 30.08 1019 10 16 0.00 0.00
11:53 am 11:53 Sunny 83 28.3 67 19.4 59 59 S 10 17 30.07 1018 10 16 0.00 0.00
12:53 pm 12:53 Sunny 85 29.4 67 19.4 55 55 S 9 15 30.07 1018 10 16 0.00 0.00
1:53 pm 13:53 Mostly Cloudy 86 30 66 18.9 51 51 SSE 14 22 30.06 1018 10 16 0.00 0.00
2:53 pm 14:53 Partly Cloudy 86 30 66 18.9 51 51 S 15 24 30.04 1017 10 16 0.00 0.00
3:53 pm 15:53 Mostly Sunny 87 30.6 65 18.3 48 48 SSE 14 22 30.03 1017 10 16 0.00 0.00
4:53 pm 16:53 Mostly Sunny 87 30.6 65 18.3 48 48 S 14 22 30.02 1017 10 16 0.00 0.00
5:53 pm 17:53 Sunny 86 30 66 18.9 51 51 S 12 19 30.01 1016 10 16 0.00 0.00
6:53 pm 18:53 Sunny 83 28.3 65 18.3 55 55 S 10 17 30.01 1016 10 16 0.00 0.00
7:53 pm 19:53 Clear 81 27.2 65 18.3 58 58 SSE 6 9 30.01 1016 10 16 0.00 0.00
8:53 pm 20:53 Clear 79 26.1 65 18.3 62 62 SSE 8 13 30.02 1017 10 16 0.00 0.00
9:53 pm 21:53 Clear 76 24.4 65 18.3 69 69 SSE 9 15 30.02 1017 10 16 0.00 0.00
10:53 pm 22:53 Clear 74 23.3 65 18.3 74 74 SSE 9 15 30.02 1017 10 16 0.00 0.00
11:53 pm 23:53 Clear 72 22.2 65 18.3 79 79 S 7 11 30.02 1017 10 16 0.00 0.00

Powered by AerisWeather